| time (UTC) | temp F | wind direction | speed MPH | gust MPH | rain 1hr in | rain 24hr in | rain mn in | humidity % | barometer mb |
| 20260904103026 | 46 | 270 | 1.0 | 5.0 | 0.00 | 0.02 | 0.00 | 79 | 1010.2 |
| 20260904101522 | 47 | 304 | 0.0 | 3.0 | 0.00 | 0.02 | 0.00 | 79 | 1010.0 |
| 20260904100019 | 48 | 101 | 2.0 | 6.0 | 0.00 | 0.10 | 0.00 | 75 | 1009.4 |
| 20260904094517 | 49 | 108 | 0.0 | 2.0 | 0.00 | 0.10 | 0.00 | 73 | 1009.6 |
| 20260904093016 | 48 | 110 | 2.0 | 3.0 | 0.00 | 0.10 | 0.00 | 75 | 1009.7 |
| 20260904091515 | 49 | 110 | 1.0 | 2.0 | 0.00 | 0.10 | 0.00 | 71 | 1009.6 |
| 20260904090013 | 50 | 110 | 0.0 | 1.0 | 0.00 | 0.11 | 0.00 | 70 | 1009.7 |
| 20260904084513 | 49 | 110 | 0.0 | 3.0 | 0.00 | 0.11 | 0.00 | 71 | 1009.7 |
| 20260904083009 | 49 | 250 | 0.0 | 0.0 | 0.00 | 0.11 | 0.00 | 70 | 1009.3 |
| 20260904081508 | 50 | 250 | 0.0 | 1.0 | 0.00 | 0.11 | 0.00 | 68 | 1009.2 |
| 20260904080003 | 51 | 250 | 0.0 | 2.0 | 0.00 | 0.11 | 0.00 | 66 | 1009.3 |
| 20260904074612 | 52 | 257 | 1.0 | 7.0 | 0.00 | 0.11 | 0.00 | 65 | 1009.1 |
| 20260904073101 | 53 | 282 | 7.0 | 9.0 | 0.00 | 0.11 | 0.00 | 61 | 1009.0 |
| 20260904071556 | 54 | 126 | 4.0 | 10.0 | 0.00 | 0.11 | 0.00 | 58 | 1008.7 |
| 20260904070053 | 54 | 109 | 8.0 | 12.0 | 0.00 | 0.11 | 0.00 | 58 | 1008.5 |
| 20260904064551 | 54 | 109 | 7.0 | 14.0 | 0.00 | 0.20 | 0.11 | 59 | 1008.6 |
| 20260904063101 | 55 | 111 | 10.0 | 16.0 | 0.00 | 0.20 | 0.11 | 57 | 1008.5 |
| 20260904061550 | 55 | 117 | 10.0 | 15.0 | 0.00 | 0.20 | 0.11 | 58 | 1008.6 |
| 20260904060048 | 55 | 137 | 12.0 | 16.0 | 0.00 | 0.20 | 0.11 | 58 | 1008.6 |
| 20260904054548 | 55 | 117 | 8.0 | 17.0 | 0.00 | 0.31 | 0.11 | 59 | 1008.4 |
| 20260904053049 | 55 | 115 | 7.0 | 14.0 | 0.00 | 0.31 | 0.11 | 60 | 1008.4 |
| 20260904051559 | 55 | 122 | 6.0 | 18.0 | 0.00 | 0.31 | 0.11 | 60 | 1008.6 |
| 20260904050045 | 55 | 115 | 9.0 | 17.0 | 0.00 | 0.31 | 0.11 | 60 | 1008.8 |
| 20260904044543 | 56 | 103 | 12.0 | 18.0 | 0.00 | 0.38 | 0.11 | 57 | 1009.0 |
| 20260904043042 | 57 | 236 | 1.0 | 8.0 | 0.00 | 0.38 | 0.11 | 56 | 1008.8 |
| 20260904041544 | 57 | 90 | 5.0 | 10.0 | 0.00 | 0.38 | 0.11 | 55 | 1008.5 |
| 20260904040044 | 57 | 111 | 4.0 | 10.0 | 0.00 | 0.42 | 0.11 | 55 | 1008.4 |
| 20260904034539 | 58 | 115 | 10.0 | 16.0 | 0.00 | 0.42 | 0.11 | 52 | 1008.2 |
| 20260904033038 | 58 | 98 | 9.0 | 20.0 | 0.00 | 0.42 | 0.11 | 52 | 1008.1 |
| 20260904031536 | 58 | 103 | 10.0 | 16.0 | 0.00 | 0.42 | 0.11 | 53 | 1008.2 |
| 20260904030034 | 58 | 113 | 11.0 | 17.0 | 0.00 | 0.42 | 0.11 | 52 | 1007.8 |
| 20260904024534 | 59 | 103 | 13.0 | 23.0 | 0.00 | 0.42 | 0.11 | 51 | 1007.7 |
| 20260904023031 | 59 | 108 | 9.0 | 18.0 | 0.00 | 0.42 | 0.11 | 51 | 1007.8 |
| 20260904021536 | 60 | 139 | 7.0 | 15.0 | 0.00 | 0.42 | 0.11 | 50 | 1007.8 |
| 20260904020029 | 60 | 103 | 6.0 | 13.0 | 0.00 | 0.42 | 0.11 | 47 | 1007.8 |
| 20260904014531 | 61 | 118 | 7.0 | 14.0 | 0.00 | 0.42 | 0.11 | 57 | 1007.7 |
| 20260904013028 | 61 | 77 | 8.0 | 14.0 | 0.00 | 0.42 | 0.11 | 58 | 1007.6 |
| 20260904011533 | 61 | 79 | 6.0 | 10.0 | 0.00 | 0.42 | 0.11 | 59 | 1007.9 |
| 20260904010039 | 61 | 311 | 1.0 | 4.0 | 0.00 | 0.42 | 0.11 | 59 | 1008.0 |
| 20260904004527 | 62 | 11 | 0.0 | 2.0 | 0.00 | 0.42 | 0.11 | 58 | 1007.7 |
| 20260904003027 | 62 | 12 | 1.0 | 6.0 | 0.00 | 0.42 | 0.11 | 54 | 1007.7 |
| 20260904001525 | 62 | 63 | 3.0 | 6.0 | 0.00 | 0.42 | 0.11 | 54 | 1007.6 |
| 20260904000030 | 63 | 34 | 2.0 | 4.0 | 0.00 | 0.42 | 0.11 | 52 | 1007.8 |
| 20260903234522 | 63 | 30 | 1.0 | 4.0 | 0.00 | 0.42 | 0.11 | 51 | 1008.0 |
| 20260903233022 | 63 | 1 | 1.0 | 4.0 | 0.00 | 0.42 | 0.11 | 51 | 1008.0 |
| 20260903231521 | 63 | 360 | 3.0 | 6.0 | 0.00 | 0.42 | 0.11 | 47 | 1008.1 |
| 20260903230023 | 63 | 17 | 4.0 | 6.0 | 0.00 | 0.42 | 0.11 | 49 | 1008.1 |
| 20260903224520 | 63 | 337 | 3.0 | 6.0 | 0.00 | 0.42 | 0.11 | 48 | 1008.3 |
| 20260903223030 | 63 | 360 | 3.0 | 5.0 | 0.00 | 0.42 | 0.11 | 49 | 1008.5 |
| 20260903221520 | 63 | 316 | 3.0 | 7.0 | 0.00 | 0.42 | 0.11 | 49 | 1008.5 |
| 20260903220019 | 63 | 9 | 4.0 | 8.0 | 0.00 | 0.42 | 0.11 | 49 | 1008.3 |
| 20260903214520 | 63 | 15 | 2.0 | 7.0 | 0.00 | 0.42 | 0.11 | 48 | 1008.5 |
| 20260903213019 | 63 | 342 | 2.0 | 6.0 | 0.00 | 0.42 | 0.11 | 47 | 1009.0 |
| 20260903211517 | 63 | 310 | 1.0 | 5.0 | 0.00 | 0.42 | 0.11 | 47 | 1009.2 |
| 20260903210017 | 63 | 34 | 1.0 | 6.0 | 0.00 | 0.42 | 0.11 | 48 | 1008.9 |
| 20260903204516 | 63 | 95 | 0.0 | 6.0 | 0.00 | 0.42 | 0.11 | 47 | 1009.1 |
| 20260903203019 | 63 | 34 | 0.0 | 6.0 | 0.00 | 0.42 | 0.11 | 48 | 1009.6 |
| 20260903201512 | 62 | 310 | 4.0 | 6.0 | 0.00 | 0.42 | 0.11 | 48 | 1009.6 |
| 20260903200012 | 62 | 10 | 3.0 | 6.0 | 0.00 | 0.42 | 0.11 | 49 | 1009.7 |
| 20260903194511 | 62 | 347 | 2.0 | 6.0 | 0.00 | 0.42 | 0.11 | 49 | 1009.9 |
| 20260903193010 | 62 | 321 | 5.0 | 6.0 | 0.00 | 0.42 | 0.11 | 49 | 1009.6 |
| 20260903191510 | 61 | 315 | 2.0 | 6.0 | 0.00 | 0.42 | 0.11 | 48 | 1009.9 |
| 20260903190007 | 61 | 307 | 2.0 | 5.0 | 0.00 | 0.42 | 0.11 | 50 | 1009.9 |
| 20260903184506 | 61 | 320 | 2.0 | 5.0 | 0.00 | 0.42 | 0.11 | 52 | 1010.2 |
| 20260903183005 | 60 | 321 | 3.0 | 6.0 | 0.00 | 0.42 | 0.11 | 52 | 1010.1 |
| 20260903181504 | 60 | 301 | 4.0 | 6.0 | 0.00 | 0.42 | 0.11 | 51 | 1010.1 |
| 20260903180004 | 60 | 342 | 3.0 | 7.0 | 0.00 | 0.42 | 0.11 | 53 | 1010.2 |
| 20260903174507 | 60 | 320 | 4.0 | 8.0 | 0.00 | 0.42 | 0.11 | 51 | 1010.2 |
| 20260903173002 | 60 | 305 | 3.0 | 8.0 | 0.00 | 0.42 | 0.11 | 56 | 1010.3 |
| 20260903171500 | 60 | 276 | 3.0 | 7.0 | 0.00 | 0.42 | 0.11 | 57 | 1010.4 |
| 20260903170100 | 60 | 252 | 5.0 | 10.0 | 0.00 | 0.42 | 0.11 | 55 | 1010.3 |
| 20260903164558 | 60 | 281 | 5.0 | 9.0 | 0.00 | 0.42 | 0.11 | 54 | 1010.2 |
| 20260903163155 | 59 | 222 | 3.0 | 8.0 | 0.00 | 0.42 | 0.11 | 59 | 1010.3 |
| 20260903161554 | 59 | 214 | 5.0 | 8.0 | 0.00 | 0.42 | 0.11 | 61 | 1010.3 |
| 20260903160105 | 59 | 185 | 4.0 | 7.0 | 0.00 | 0.42 | 0.11 | 64 | 1010.4 |
| 20260903154551 | 59 | 172 | 5.0 | 10.0 | 0.00 | 0.42 | 0.11 | 68 | 1010.4 |
| 20260903153048 | 58 | 174 | 2.0 | 6.0 | 0.00 | 0.42 | 0.11 | 70 | 1010.4 |
| 20260903151543 | 57 | 243 | 0.0 | 4.0 | 0.00 | 0.42 | 0.11 | 79 | 1010.5 |
| 20260903150040 | 56 | 108 | 0.0 | 2.0 | 0.01 | 0.42 | 0.11 | 80 | 1010.5 |
| 20260903144542 | 55 | 108 | 0.0 | 2.0 | 0.01 | 0.42 | 0.11 | 83 | 1010.7 |
| 20260903143039 | 54 | 109 | 0.0 | 4.0 | 0.01 | 0.42 | 0.11 | 84 | 1010.6 |
| 20260903141537 | 54 | 101 | 4.0 | 5.0 | 0.01 | 0.42 | 0.11 | 84 | 1010.4 |
| 20260903140036 | 54 | 119 | 0.0 | 4.0 | 0.00 | 0.41 | 0.10 | 86 | 1010.5 |
| 20260903134537 | 54 | 141 | 0.0 | 0.0 | 0.00 | 0.41 | 0.10 | 85 | 1010.4 |
| 20260903133034 | 54 | 141 | 0.0 | 2.0 | 0.00 | 0.41 | 0.10 | 83 | 1010.2 |
| 20260903131533 | 54 | 141 | 2.0 | 4.0 | 0.00 | 0.41 | 0.10 | 83 | 1010.4 |
| 20260903130031 | 54 | 149 | 0.0 | 3.0 | 0.00 | 0.41 | 0.10 | 84 | 1010.1 |
| 20260903124529 | 54 | 143 | 3.0 | 5.0 | 0.00 | 0.41 | 0.10 | 84 | 1009.9 |
| 20260903123029 | 54 | 131 | 2.0 | 5.0 | 0.00 | 0.41 | 0.10 | 86 | 1009.9 |
| 20260903121525 | 54 | 145 | 0.0 | 3.0 | 0.00 | 0.41 | 0.10 | 89 | 1009.7 |
| 20260903120025 | 53 | 168 | 0.0 | 1.0 | 0.00 | 0.41 | 0.10 | 91 | 1009.6 |
| 20260903114524 | 53 | 114 | 0.0 | 1.0 | 0.00 | 0.41 | 0.10 | 91 | 1009.3 |
| 20260903113033 | 53 | 317 | 0.0 | 2.0 | 0.00 | 0.41 | 0.10 | 89 | 1009.4 |
| 20260903111522 | 54 | 293 | 1.0 | 7.0 | 0.01 | 0.41 | 0.10 | 88 | 1009.6 |
| 20260903110020 | 54 | 304 | 3.0 | 5.0 | 0.01 | 0.41 | 0.10 | 87 | 1009.3 |
| 20260903104520 | 54 | 345 | 2.0 | 3.0 | 0.04 | 0.41 | 0.10 | 87 | 1009.2 |